Location: Unspecified
(0.0000°N, 0.0000°E)
Time: 22:29:26
(UTC+00:00)

ISS - Pass Details

Date: 24 May 2018
Orbit: 402 x 407 km, 51.6° (Epoch: 24 May)

Event Time Altitude Azimuth Distance (km) Brightness Sun altitude
Rises 04:17:21 0° 349° (N) 2,296 0.1 -23.2°
Reaches altitude 10° 04:19:53 10° 10° (N) 1,442 -0.7 -22.6°
Maximum altitude 04:22:08 18° 54° (NE) 1,077 -0.8 -22.1°
Drops below altitude 10° 04:24:25 10° 99° (E) 1,449 -0.2 -21.5°
Sets 04:26:57 0° 119° (ESE) 2,311 0.6 -20.9°
